Location: Newark
(50.0306°N, 2.3272°E)
Time: 11:24:29
(UTC+00:00)

A-11 Canister half - Pass Details

Date: 12 December 2019
Orbit: 1525 x 1684 km, 47.3° (Epoch: 19 January)

Event Time Altitude Azimuth Distance (km) Brightness Sun altitude
Rises 04:17:15 0° 203° (SSW) 4,888 - -31.3°
Exits shadow 04:17:46 - 202° (SSW) 4,743 11.4 -31.2°
Reaches altitude 10° 04:20:51 10° 193° (SSW) 3,918 11.0 -30.7°
Maximum altitude 04:29:15 31° 136° (SE) 2,623 10.5 -29.3°
Drops below altitude 10° 04:37:41 10° 80° (E) 3,946 12.1 -28.0°
Sets 04:41:17 0° 71° (ENE) 4,928 12.7 -27.4°
